sat.trackr.live / text

‹ back to catalog

STARLINK-36060

NORAD 67090 · 2025-298R

PAYLOAD ACTIVE UNKNOWN

§ Identity

Operator
Country
US
Launch date
2025-12-14
Launch site
AFWTR
Launch vehicle
Mass (kg)
RCS (m²)

Purposes: comms

External: N2YO · Heavens-Above · Gunter

§ Orbital elements

Epoch: 2026-09-19T16:04:00.889536Z

Period
96.11 min
Inclination
70.0000°
Eccentricity
0.0003497
Mean motion
14.98335802 rev/d
Perigee alt
569.6 km
Apogee alt
574.5 km
Semi-major
6,950.2 km
B*
1.8205e-4
RAAN
245.3612°
Arg perigee
273.0356°
Mean anomaly
87.0403°
Rev number
4,227

§ Raw data

STARLINK-360601 67090U 25298R   26262.66945474  .00002080  00000+0  18205-3 0  99992 67090  70.0000 245.3612 0003497 273.0356  87.0403 14.98335802 42273

JSON: /api/v1/satellites/67090 · /tle

For live sub-satellite position, see the globe view (requires WebGL).

§ Visibility from observer

Set your observer location to see the next 7 days of passes ≥ 10°. The values pass through the URL so the page stays shareable.

No JS? Fill the form by hand. The geolocation button needs JavaScript.